Location: Cardiff
(53.7833°N, 113.6000°W)
Time: 17:46:38
(UTC+00:00)

NOAA 15 - Pass Details

Date: 10 December 2023
Orbit: 796 x 810 km, 98.6° (Epoch: 21 February)

Event Time Altitude Azimuth Distance (km) Brightness Sun altitude
Rises 02:10:34 0° 164° (SSE) 3,317 7.7 -24.6°
Reaches altitude 10° 02:12:54 10° 165° (SSE) 2,388 6.9 -25.0°
Maximum altitude 02:18:12 83° 253° (WSW) 819 4.6 -25.8°
Drops below altitude 10° 02:23:31 10° 343° (NNW) 2,397 7.2 -26.5°
Sets 02:25:52 0° 344° (NNW) 3,330 8.0 -26.9°
